Location: Franzen
(48.6167°N, 15.3833°E)
Time: 23:42:34
(UTC+00:00)

Cosmos 2219 - Pass Details

Date: 07 August 2021
Orbit: 834 x 859 km, 71.1° (Epoch: 22 September)

Event Time Altitude Azimuth Distance (km) Brightness Sun altitude
Exits shadow 20:39:29 26° 117° (ESE) 1,628 4.2 -17.7°
Maximum altitude 20:40:17 27° 103° (ESE) 1,596 4.2 -17.7°
Drops below altitude 10° 20:45:00 10° 48° (NE) 2,504 5.7 -18.2°
Sets 20:47:48 0° 36° (NE) 3,445 6.6 -18.5°
